{"data":{"norad_id":68961,"intl_designator":"2026-099L","name":"STARLINK-36965","alt_names":[],"object_type":"PAYLOAD","status":"ACTIVE","operator":null,"country":"US","launch_date":"2026-05-01","launch_site_code":"AFETR","launch_vehicle":null,"mission":null,"orbit_class":"UNKNOWN","rcs_meters":null,"size_class":null,"mass_kg":null,"dimensions":null,"purposes":["comms"],"wikipedia_slug":null,"has_3d_model":false,"image_url":null,"decayed_at":null,"tle_current":{"epoch":"2026-05-25T04:00:03.998880Z","epoch_age_seconds":54632,"freshness":"FRESH","line1":"1 68961U 26099L   26145.16671295  .00097153  00000+0  17381-2 0  9997","line2":"2 68961  53.1591 270.7278 0001138  98.8893 230.8254 15.49229494  5016","mean_motion":15.49229494,"eccentricity":0.0001138,"inclination_deg":53.1591,"raan_deg":270.7278,"arg_perigee_deg":98.8893,"mean_anomaly_deg":230.8254,"bstar":0.0017381,"rev_number":501,"period_min":92.949431028583,"perigee_km":418.20531121022,"apogee_km":419.75233477153,"semimajor_km":6797.1158229909,"source":"CELESTRAK","updated_at":"2026-05-25T13:38:22.073860Z"}}}